EW7791 Ponce PR US current weather conditions

sailwx.info

Wind from 144 at 7 knots gusting 14

Air temperature 28.3° C
Dewpoint 23.0° C

Last reported at 2019-Dec-08 20:00 UTC.
Time now 2019-Dec-08 20:38 UTC

Location: N 17°58' W 066°37'.
View on Google Maps.

See reports from other nearby stations

  
Tides and Currents Weather Stations Pressure Air Temp Water Temp Dewpoint Dewpoint Depression Visibility Wind Speed Wind Dir Waves Ship Positions
date/time (UTC)wind fromknots sea level pressurealtimeterstation pressurevisibilityair tempwater tempwave heightnotes
2019-Dec-08 20:00 144 7 gusting 14 28.3
2019-Dec-08 19:45 138 8 gusting 13 28.9
2019-Dec-08 19:30 126 8 gusting 13 28.9
2019-Dec-08 19:15 128 9 gusting 13 28.9
2019-Dec-08 19:01 144 6 gusting 12 28.9
2019-Dec-08 18:46 141 7 gusting 13 28.9
2019-Dec-08 18:30 130 8 gusting 13 29.4
2019-Dec-08 18:15 154 7 gusting 12 29.4
2019-Dec-08 18:01 139 6 gusting 13 29.4
2019-Dec-08 17:45 146 7 gusting 12 29.4
2019-Dec-08 17:30 200 7 gusting 12 29.4
2019-Dec-08 17:15 148 6 gusting 13 29.4
2019-Dec-08 17:01 159 5 gusting 10 29.4
2019-Dec-08 16:45 062 6 gusting 9 29.4
2019-Dec-08 16:30 202 6 gusting 14 28.9
2019-Dec-08 16:15 153 7 gusting 14 28.9
2019-Dec-08 16:00 126 7 gusting 11 28.3
2019-Dec-08 15:45 167 7 gusting 11 28.3
2019-Dec-08 15:30 134 6 gusting 11 28.3
2019-Dec-08 15:15 141 6 gusting 9 28.3
2019-Dec-08 15:00 168 6 gusting 9 28.9
2019-Dec-08 14:45 154 5 gusting 10 28.9
2019-Dec-08 14:30 130 4 gusting 10 28.9
2019-Dec-08 14:16 122 4 gusting 12 28.9
2019-Dec-08 14:01 082 7 gusting 13 27.8
2019-Dec-08 13:47 064 7 gusting 12 27.2
2019-Dec-08 13:31 109 6 gusting 11 27.2
2019-Dec-08 13:16 107 7 gusting 12 26.7
2019-Dec-08 13:01 090 8 gusting 12 26.7
2019-Dec-08 12:46 063 5 gusting 7 26.1
2019-Dec-08 12:31 052 3 gusting 6 25.0
2019-Dec-08 12:15 050 2 gusting 6 23.9
2019-Dec-08 12:01 045 4 gusting 6 23.3
2019-Dec-08 11:45 049 3 gusting 6 23.3
2019-Dec-08 11:30 040 3 gusting 6 22.8
2019-Dec-08 11:16 038 4 gusting 6 22.2
2019-Dec-08 11:00 038 1 gusting 4 22.2
2019-Dec-08 10:46 040 0 gusting 4 22.2
2019-Dec-08 10:30 041 2 gusting 4 22.8
2019-Dec-08 10:15 041 2 gusting 6 22.8
2019-Dec-08 10:01 039 3 gusting 6 22.2
2019-Dec-08 09:46 035 3 gusting 7 22.8
2019-Dec-08 09:31 041 2 gusting 5 22.8
2019-Dec-08 09:15 046 2 gusting 5 22.8
2019-Dec-08 09:00 039 1 gusting 4 22.8
2019-Dec-08 08:46 036 1 gusting 4 22.8
2019-Dec-08 08:30 033 1 gusting 3 22.8
2019-Dec-08 08:16 030 2 gusting 5 23.3
2019-Dec-08 08:00 033 2 gusting 5 23.3
2019-Dec-08 07:45 034 1 gusting 3 22.8
2019-Dec-08 07:30 035 3 gusting 6 23.3
2019-Dec-08 07:15 036 4 gusting 7 23.3
2019-Dec-08 07:00 032 2 gusting 7 23.3
2019-Dec-08 06:45 036 2 gusting 5 23.9
2019-Dec-08 06:30 041 0 gusting 2 23.9
2019-Dec-08 06:15 041 3 gusting 6 23.9
2019-Dec-08 06:00 040 4 gusting 8 23.9
2019-Dec-08 05:45 041 5 gusting 7 23.9
2019-Dec-08 05:31 044 5 gusting 7 23.9
2019-Dec-08 05:17 041 4 gusting 7 23.9
2019-Dec-08 05:01 030 3 gusting 6 24.4
2019-Dec-08 04:46 038 3 gusting 5 24.4
2019-Dec-08 04:32 043 2 gusting 5 24.4
2019-Dec-08 04:16 034 2 gusting 5 24.4
2019-Dec-08 04:01 040 2 gusting 6 25.0
2019-Dec-08 03:46 047 2 gusting 6 25.0
2019-Dec-08 03:30 039 3 gusting 5 25.0
2019-Dec-08 03:16 074 3 gusting 7 25.0
2019-Dec-08 03:01 045 2 gusting 6 25.0
2019-Dec-08 02:47 044 0 gusting 5 25.6
2019-Dec-08 02:31 046 2 gusting 5 25.6
2019-Dec-08 02:16 067 3 gusting 6 25.6
2019-Dec-08 02:02 046 4 gusting 6 25.6
2019-Dec-08 01:31 049 1 gusting 5 25.6
2019-Dec-08 01:16 042 3 gusting 6 26.1
2019-Dec-08 01:01 073 4 gusting 6 25.6
2019-Dec-08 00:47 075 4 gusting 7 25.6
2019-Dec-08 00:31 080 5 gusting 8 25.6
2019-Dec-08 00:15 064 5 gusting 8 26.1
2019-Dec-08 00:01 082 6 gusting 8 26.1
2019-Dec-07 23:46 065 5 gusting 8 26.1
2019-Dec-07 23:32 071 2 gusting 6 26.7
2019-Dec-07 23:15 056 2 gusting 9 26.7
2019-Dec-07 23:00 027 2 gusting 17 27.2
2019-Dec-07 22:46 110 10 gusting 19 27.2
2019-Dec-07 22:31 121 13 gusting 19 27.8
2019-Dec-07 22:16 125 9 gusting 14 27.8
2019-Dec-07 22:01 136 8 gusting 14 27.8
2019-Dec-07 21:46 115 9 gusting 15 27.8
2019-Dec-07 21:31 156 6 gusting 17 28.3
2019-Dec-07 21:16 145 8 gusting 15 28.3
2019-Dec-07 21:01 152 8 gusting 14 28.3
2019-Dec-07 20:45 156 8 gusting 14 28.9
2019-Dec-07 20:31 136 8 gusting 16 28.9
2019-Dec-07 20:16 146 7 gusting 17 28.9
2019-Dec-07 20:00 148 9 gusting 14 28.9
2019-Dec-07 19:46 133 8 gusting 15 28.9
2019-Dec-07 19:31 128 9 gusting 16 28.9
2019-Dec-07 19:16 152 9 gusting 16 28.9
2019-Dec-07 19:00 122 9 gusting 16 28.9
2019-Dec-07 18:45 136 9 gusting 14 28.9
2019-Dec-07 18:31 132 7 gusting 16 28.9
2019-Dec-07 18:15 130 10 gusting 17 28.9
2019-Dec-07 18:00 165 10 gusting 16 28.9
2019-Dec-07 17:45 175 10 gusting 17 28.9
2019-Dec-07 17:30 167 10 gusting 19 29.4
2019-Dec-07 17:15 157 9 gusting 17 28.9
2019-Dec-07 17:00 170 8 gusting 16 29.4
2019-Dec-07 16:45 159 7 gusting 14 29.4
2019-Dec-07 16:30 145 8 gusting 13 29.4
2019-Dec-07 16:15 162 7 gusting 11 29.4
2019-Dec-07 16:00 142 6 gusting 12 29.4
2019-Dec-07 15:45 157 6 gusting 10 29.4
2019-Dec-07 15:30 107 3 gusting 8 29.4
2019-Dec-07 15:15 150 6 gusting 12 28.9
2019-Dec-07 15:00 135 7 gusting 12 28.9
2019-Dec-07 14:45 148 5 gusting 8 29.4
2019-Dec-07 14:30 111 3 gusting 8 29.4
2019-Dec-07 14:15 130 5 gusting 8 29.4
2019-Dec-07 14:00 123 7 gusting 12 28.9
2019-Dec-07 13:46 119 5 gusting 9 28.3
2019-Dec-07 13:31 105 7 gusting 10 27.8
2019-Dec-07 13:16 088 5 gusting 6 27.2
2019-Dec-07 13:02 046 3 gusting 7 27.2
2019-Dec-07 12:46 042 2 gusting 6 26.1
2019-Dec-07 12:31 042 1 gusting 6 25.6
2019-Dec-07 12:15 044 2 gusting 5 25.0
2019-Dec-07 12:01 040 3 gusting 6 23.9
2019-Dec-07 11:46 034 4 gusting 6 23.3
2019-Dec-07 11:31 032 1 gusting 4 23.3
2019-Dec-07 11:16 032 2 gusting 6 22.8
2019-Dec-07 11:01 034 2 gusting 5 22.8
2019-Dec-07 10:46 032 3 gusting 6 22.8
2019-Dec-07 10:31 032 2 gusting 5 22.8
2019-Dec-07 10:15 032 2 gusting 4 22.8
2019-Dec-07 10:00 033 3 gusting 5 22.8
2019-Dec-07 09:45 038 2 gusting 5 22.8
2019-Dec-07 09:30 038 3 gusting 4 22.8
2019-Dec-07 09:15 038 1 gusting 4 22.8
2019-Dec-07 09:00 039 1 gusting 4 22.8
2019-Dec-07 08:45 039 2 gusting 4 23.3
2019-Dec-07 08:30 039 1 gusting 4 23.3
2019-Dec-07 08:15 040 2 gusting 4 23.3
2019-Dec-07 08:00 040 3 gusting 6 23.3
2019-Dec-07 07:45 042 2 gusting 4 23.3
2019-Dec-07 07:15 036 3 gusting 5 23.3
2019-Dec-07 07:00 044 2 gusting 4 23.3
2019-Dec-07 06:45 044 2 gusting 4 23.3
2019-Dec-07 06:30 045 2 gusting 5 23.9
2019-Dec-07 06:15 038 2 gusting 5 23.3
2019-Dec-07 06:00 032 2 gusting 6 23.9
2019-Dec-07 05:45 036 3 gusting 6 23.9
2019-Dec-07 05:30 038 3 gusting 5 23.9
2019-Dec-07 05:15 035 3 gusting 6 23.9
2019-Dec-07 05:02 035 4 gusting 8 23.9
2019-Dec-07 04:47 038 3 gusting 7 23.9
2019-Dec-07 04:31 029 2 gusting 4 23.9
2019-Dec-07 04:17 028 1 gusting 4 23.9
2019-Dec-07 04:01 024 2 gusting 4 23.9
2019-Dec-07 03:46 020 1 gusting 4 24.4
2019-Dec-07 03:31 034 4 gusting 8 24.4
2019-Dec-07 03:16 030 4 gusting 8 24.4
2019-Dec-07 03:01 027 2 gusting 7 24.4
2019-Dec-07 02:46 051 3 gusting 6 24.4
2019-Dec-07 02:31 046 2 gusting 5 24.4
2019-Dec-07 02:17 044 3 gusting 5 25.0
2019-Dec-07 02:01 034 0 gusting 3 25.0
2019-Dec-07 01:46 031 0 gusting 5 25.0
2019-Dec-07 01:32 045 3 gusting 6 25.0
2019-Dec-07 01:17 032 2 gusting 4 25.0
2019-Dec-07 01:02 045 3 gusting 5 25.0
2019-Dec-07 00:46 042 3 gusting 7 25.0
2019-Dec-07 00:31 079 6 gusting 8 25.6
2019-Dec-07 00:16 104 6 gusting 10 26.1
2019-Dec-07 00:01 080 6 gusting 9 26.1
2019-Dec-06 23:46 049 5 gusting 10 26.7
2019-Dec-06 23:31 059 7 gusting 12 27.2
2019-Dec-06 23:15 118 9 gusting 16 27.8
2019-Dec-06 23:02 143 8 gusting 16 27.8
2019-Dec-06 22:46 104 9 gusting 16 27.8
2019-Dec-06 22:32 149 10 gusting 18 27.8
2019-Dec-06 22:16 142 9 gusting 17 27.8
2019-Dec-06 22:01 136 9 gusting 18 27.8
2019-Dec-06 21:47 159 12 gusting 17 28.3
2019-Dec-06 21:31 170 11 gusting 18 28.3
2019-Dec-06 21:16 182 13 gusting 19 28.3
2019-Dec-06 21:00 142 12 gusting 20 28.9
2019-Dec-06 20:45 138 11 gusting 20 28.9
2019-Dec-06 20:31 108 12 gusting 19 28.9
2019-Dec-06 20:15 133 12 gusting 19 28.9
2019-Dec-06 20:01 135 11 gusting 19 28.9